[[{"header":{"parameterUnit":"m.s-1","parameterCategory":1,"la1":30.2991,"la2":30.254,"lo1":-89.0895,"lo2":-89.0444,"dy":0.0017,"dx":0.0017,"nx":28,"ny":28,"refTime":"2025-04-21T21:00:00:Z","depth":0,"parameterNumber":2,"parameterNumberName":"U-component_of_WINDS"},"data":[0,0,0,0,0,0,0,0,0,0,0,0,0,0,0,0,0,0,0,0,0,0,0,0,0,0,0,0,0,0,0,0,0,0,0,0,0,0,0,0,0,0,0,0,0,0,0,0,0,0,0,0,0,0,0,0,0,0,-1.6991,-1.6991,0,-1.7051,-1.7051,-1.7052,-1.7047,-1.7046,-1.7045,-1.7044,-1.7109,-1.7111,-1.7114,0,0,0,0,0,0,0,0,0,0,0,0,0,-1.6875,-1.6877,-1.699,-1.6991,-1.6992,-1.705,-1.7051,-1.7052,-1.7047,-1.7046,-1.7045,-1.7044,-1.7108,-1.7111,-1.7114,0,0,0,0,0,0,0,0,0,0,0,0,0,-1.6929,-1.6878,-1.699,-1.6996,-1.6998,-1.705,-1.7051,-1.7052,-1.7047,-1.7046,-1.7044,-1.7043,-1.7107,-1.7111,-1.7114,-1.7166,0,0,-1.7126,-1.7128,0,0,0,0,0,0,0,0,-1.6926,-1.6934,-1.6995,-1.6996,-1.6997,-1.704,-1.7034,-1.7091,-1.7048,-1.7028,-1.7044,-1.7042,-1.7087,-1.7093,-1.7107,-1.7169,-1.7172,-1.7127,-1.7129,-1.7131,-1.7132,0,0,0,0,0,0,0,-1.6923,-1.6931,-1.7014,-1.6996,-1.6997,-1.6997,-1.7004,-1.7045,-1.7065,-1.703,-1.703,-1.7037,-1.7088,-1.7103,-1.7108,-1.7173,-1.7127,-1.713,-1.7132,-1.7134,-1.7282,-1.7283,0,0,0,0,0,0,-1.6917,-1.6928,-1.7012,-1.7016,-1.6958,-1.7001,-1.7007,-1.7028,-1.7064,-1.7069,-1.7038,-1.7036,-1.7097,-1.7104,-1.7111,-1.7174,-1.7131,-1.7134,-1.7136,-1.728,-1.7282,-1.7284,0,0,0,0,0,0,-1.6914,-1.6924,-1.701,-1.6972,-1.6983,-1.7004,-1.7027,-1.703,-1.7045,-1.707,-1.7074,-1.705,-1.7096,-1.7105,-1.7152,-1.7176,-1.7136,-1.714,-1.7278,-1.7281,-1.7283,-1.7301,0,0,0,0,0,0,-1.6911,-1.6924,-1.6942,-1.6972,-1.6985,-1.705,-1.7028,-1.7032,-1.7051,-1.705,-1.7083,-1.7087,-1.7096,-1.7147,-1.7156,-1.7181,-1.7143,-1.7276,-1.7279,-1.7282,-1.7298,-1.7304,-1.7308,0,0,0,0,0,-1.6907,-1.6946,-1.6943,-1.6954,-1.7009,-1.7051,-1.7058,-1.7067,-1.7053,-1.7073,-1.709,-1.7086,-1.7172,-1.7151,-1.7162,-1.7188,-1.7275,-1.7278,-1.7282,-1.7296,-1.7303,-1.7308,0,0,0,0,0,0,-1.6919,-1.695,-1.6947,-1.6997,-1.7021,-1.705,-1.7075,-1.7074,-1.7103,-1.7101,-1.7112,-1.7119,-1.7167,-1.7182,-1.7159,-1.7241,-1.7222,-1.7228,-1.7229,-1.7235,-1.724,-1.7235,-1.7146,0,0,0,0,0,-1.6927,-1.6957,-1.6983,-1.7024,-1.7036,-1.7054,-1.7072,-1.7077,-1.7103,-1.7114,-1.7134,-1.716,-1.7194,-1.7215,-1.7247,-1.7301,-1.7308,-1.7324,-1.7329,-1.7333,-1.7338,-1.7369,-1.7376,-1.7296,-1.7296,-1.7296,0,0,-1.6944,-1.6965,-1.6984,-1.7027,-1.7047,-1.7079,-1.7062,-1.7097,-1.7122,-1.712,-1.7165,-1.7181,-1.7211,-1.7262,-1.7285,-1.7277,-1.7362,-1.7338,-1.7341,-1.7344,-1.7373,-1.7381,-1.7387,-1.7298,-1.7298,-1.7297,0,0,-1.6993,-1.7011,-1.7047,-1.7067,-1.7097,-1.7108,-1.7117,-1.7146,-1.7156,-1.7202,-1.7201,-1.7231,-1.7288,-1.731,-1.7329,-1.7387,-1.7385,-1.7397,-1.7423,-1.7452,-1.7459,-1.7464,-1.7486,-1.7493,-1.7402,-1.7402,-1.7402,0,-1.7011,-1.7059,-1.7067,-1.7102,-1.7122,-1.712,-1.7158,-1.7177,-1.7216,-1.723,-1.722,-1.7291,-1.7312,-1.7368,-1.7382,-1.7397,-1.7409,-1.7393,-1.7457,-1.7463,-1.7468,-1.7489,-1.7497,-1.7403,-1.7403,-1.7403,-1.7403,0,-1.708,-1.7113,-1.714,-1.7176,-1.7199,-1.7235,-1.725,-1.7272,-1.7276,-1.7288,-1.7336,-1.736,-1.7398,-1.7411,-1.7415,-1.7469,-1.7462,-1.7454,-1.7435,-1.7477,-1.7496,-1.7504,-1.7405,-1.7405,-1.7404,-1.7404,0,0,-1.7137,-1.7178,-1.7187,-1.7204,-1.7237,-1.7264,-1.7301,-1.7336,-1.7356,-1.7383,-1.7415,-1.7464,-1.7457,-1.7478,-1.7484,-1.751,-1.7555,-1.7499,-1.75,-1.7509,-1.7617,-1.7623,-1.7632,-1.7554,-1.7556,-1.7557,-1.7615,0,-1.7189,-1.7253,-1.7262,-1.7319,-1.7351,-1.7351,-1.7383,-1.7408,-1.7421,-1.7451,-1.7466,-1.7501,-1.7488,-1.7501,-1.7527,-1.7544,-1.7577,-1.754,-1.7585,-1.7587,-1.7578,-1.7642,-1.7648,-1.7701,-1.7622,-1.7624,-1.7624,0,-1.7258,-1.7286,-1.7346,-1.7376,-1.7389,-1.7418,-1.7452,-1.748,-1.7509,-1.7517,-1.7541,-1.7544,-1.7584,-1.7563,-1.7619,-1.7594,-1.7613,-1.7625,-1.7627,-1.7632,-1.7608,-1.7649,-1.7718,-1.7726,-1.7636,-1.7635,-1.7635,0,-1.7294,-1.7347,-1.739,-1.7405,-1.744,-1.7461,-1.7476,-1.7503,-1.7524,-1.7555,-1.7569,-1.7603,-1.7623,-1.765,-1.7663,-1.7647,-1.7719,-1.7699,-1.7728,-1.7727,-1.7743,-1.7741,-1.7817,-1.7755,-1.7755,-1.7754,-1.7754,0,-1.7351,-1.7388,-1.7407,-1.7434,-1.7476,-1.7486,-1.7528,-1.7543,-1.7568,-1.7598,-1.7601,-1.763,-1.7645,-1.7677,-1.7688,-1.7733,-1.7742,-1.775,-1.7753,-1.775,-1.7749,-1.7763,-1.776,-1.7756,-1.7756,-1.7756,-1.7755,0,-1.7398,-1.7412,-1.7459,-1.7489,-1.7497,-1.7527,-1.7553,-1.7579,-1.7593,-1.7632,-1.7642,-1.7663,-1.7701,-1.7717,-1.7763,-1.777,-1.7822,-1.7822,-1.7812,-1.7813,-1.7841,-1.7838,-1.7928,-1.794,-1.787,-1.7871,-1.7871,0,-1.7434,-1.7462,-1.7495,-1.7515,-1.7531,-1.7564,-1.7585,-1.7597,-1.7619,-1.7654,-1.7677,-1.7715,-1.7745,-1.7805,-1.7826,-1.7862,-1.7863,-1.7892,-1.7868,-1.7865,-1.7864,-1.7862,-1.7865,-1.7896,-1.7897,-1.7897,-1.7898,0,-1.7496,-1.7501,-1.7531,-1.7565,-1.759,-1.7617,-1.7643,-1.766,-1.7676,-1.7702,-1.7739,-1.7763,-1.781,-1.7848,-1.7885,-1.7903,-1.7904,-1.7905,-1.7914,-1.7911,-1.7905,-1.7909,-1.7824,-1.7903,-1.7902,-1.7902,-1.7902,-1.7902,-1.7538,-1.7564,-1.7591,-1.7625,-1.7646,-1.767,-1.7697,-1.7714,-1.7745,-1.7784,-1.7789,-1.783,-1.7859,-1.7909,-1.7929,-1.7962,-1.7955,-1.7967,-1.797,-1.7973,-1.7975,-1.7899,-1.7969,-1.7969,-1.7968,-1.7968,-1.7968,0,-1.7601,-1.7618,-1.7649,-1.7686,-1.7713,-1.771,-1.7739,-1.7762,-1.7798,-1.7824,-1.7854,-1.7899,-1.7935,-1.7959,-1.7996,-1.8018,-1.802,-1.8028,-1.8027,-1.8031,-1.7979,-1.7968,-1.8026,-1.8026,-1.8026,-1.8026,-1.8026,-1.8026,-1.7636,-1.768,-1.7689,-1.7743,-1.7761,-1.78,-1.7817,-1.784,-1.7861,-1.791,-1.794,-1.7955,-1.7981,-1.8021,-1.8055,-1.8061,-1.8075,-1.8083,-1.8089,-1.804,-1.8034,-1.8029,-1.8018,-1.8086,-1.8086,-1.8138,-1.8139,-1.8139]},{"header":{"parameterUnit":"m.s-1","parameterCategory":1,"la1":30.2991,"la2":30.254,"lo1":-89.0895,"lo2":-89.0444,"dy":0.0017,"dx":0.0017,"nx":28,"ny":28,"refTime":"2025-04-21T21:00:00:Z","depth":0,"parameterNumber":3,"parameterNumberName":"V-component_of_WINDS"},"data":[0,0,0,0,0,0,0,0,0,0,0,0,0,0,0,0,0,0,0,0,0,0,0,0,0,0,0,0,0,0,0,0,0,0,0,0,0,0,0,0,0,0,0,0,0,0,0,0,0,0,0,0,0,0,0,0,0,0,0.0538,0.0538,0,0.0533,0.0533,0.0533,0.0545,0.0545,0.0546,0.0546,0.0539,0.0538,0.0538,0,0,0,0,0,0,0,0,0,0,0,0,0,0.0557,0.0556,0.0538,0.0538,0.0538,0.0533,0.0533,0.0533,0.0545,0.0545,0.0546,0.0546,0.0539,0.0538,0.0538,0,0,0,0,0,0,0,0,0,0,0,0,0,0.055,0.0556,0.0538,0.0544,0.0544,0.0533,0.0533,0.0533,0.0545,0.0545,0.0546,0.0546,0.0539,0.0538,0.0537,0.0521,0,0,0.0535,0.0535,0,0,0,0,0,0,0,0,0.055,0.0549,0.0543,0.0543,0.0544,0.054,0.0537,0.0529,0.0545,0.0544,0.0546,0.0547,0.0539,0.0538,0.0536,0.0521,0.052,0.0535,0.0534,0.0534,0.0534,0,0,0,0,0,0,0,0.0551,0.055,0.0536,0.0543,0.0543,0.0546,0.0545,0.0536,0.0538,0.0544,0.0545,0.0545,0.0539,0.0536,0.0536,0.052,0.0535,0.0534,0.0534,0.0533,0.0492,0.0491,0,0,0,0,0,0,0.0551,0.055,0.0537,0.0536,0.0549,0.0545,0.0544,0.0541,0.0538,0.0539,0.0544,0.0545,0.0538,0.0536,0.0535,0.0516,0.0534,0.0533,0.0533,0.0492,0.0492,0.0491,0,0,0,0,0,0,0.0551,0.055,0.0537,0.0543,0.0542,0.0544,0.054,0.054,0.0538,0.0538,0.0539,0.0541,0.0538,0.0536,0.0525,0.0516,0.0533,0.0532,0.0493,0.0492,0.0491,0.0477,0,0,0,0,0,0,0.0552,0.055,0.0544,0.0543,0.0541,0.0527,0.0539,0.054,0.0537,0.0538,0.0536,0.0536,0.0538,0.0526,0.0524,0.0515,0.0532,0.0494,0.0493,0.0492,0.0478,0.0476,0.0473,0,0,0,0,0,0.0552,0.0539,0.0543,0.0542,0.0534,0.0526,0.0525,0.0529,0.0536,0.053,0.053,0.0536,0.0517,0.0525,0.0522,0.0513,0.0494,0.0493,0.0492,0.0479,0.0476,0.0473,0,0,0,0,0,0,0.0538,0.0539,0.0544,0.053,0.0528,0.0528,0.052,0.0525,0.0521,0.0522,0.0526,0.0526,0.0513,0.0512,0.052,0.0497,0.0507,0.0505,0.0498,0.0495,0.0493,0.0493,0.0531,0,0,0,0,0,0.0534,0.0528,0.0529,0.0517,0.0516,0.0518,0.0515,0.0518,0.0516,0.0514,0.0514,0.0511,0.0504,0.05,0.0494,0.0478,0.0478,0.0471,0.0469,0.0467,0.0465,0.0456,0.0453,0.0486,0.0486,0.0486,0,0,0.0524,0.0524,0.052,0.0514,0.0513,0.0506,0.0517,0.0509,0.0504,0.0513,0.0502,0.0501,0.0498,0.0485,0.0478,0.0483,0.0456,0.0465,0.0463,0.0462,0.0454,0.0451,0.0449,0.0485,0.0486,0.0486,0,0,0.0503,0.0502,0.0492,0.0491,0.0489,0.0491,0.0488,0.0488,0.0488,0.0477,0.0484,0.0477,0.0466,0.0464,0.0461,0.0439,0.0444,0.0437,0.0424,0.0416,0.0413,0.0411,0.0403,0.04,0.0435,0.0435,0.0435,0,0.0491,0.0481,0.0486,0.0478,0.0475,0.0484,0.0474,0.0472,0.0468,0.0465,0.0471,0.0457,0.0456,0.0442,0.0436,0.0434,0.0431,0.0437,0.0414,0.0411,0.0409,0.0401,0.0398,0.0434,0.0435,0.0435,0.0435,0,0.0466,0.0459,0.0452,0.0448,0.0444,0.0435,0.0439,0.0434,0.0438,0.0439,0.0428,0.0427,0.0421,0.0418,0.0421,0.0404,0.0407,0.0413,0.0423,0.0405,0.0398,0.0395,0.0433,0.0433,0.0434,0.0434,0,0,0.0435,0.0436,0.0432,0.0431,0.043,0.0424,0.0415,0.041,0.0406,0.0403,0.0395,0.0386,0.0392,0.0389,0.0392,0.0385,0.0367,0.0392,0.0392,0.0387,0.0348,0.0343,0.0339,0.0371,0.037,0.037,0.0348,0,0.0414,0.0399,0.0404,0.0389,0.0382,0.0391,0.0383,0.0381,0.0382,0.0376,0.0377,0.0371,0.0379,0.0377,0.037,0.0371,0.0359,0.0372,0.0363,0.0363,0.0363,0.0336,0.033,0.031,0.0345,0.0345,0.0345,0,0.0387,0.0384,0.0368,0.0368,0.0366,0.0359,0.0354,0.0349,0.0347,0.0348,0.0345,0.0349,0.034,0.0351,0.0338,0.0346,0.0343,0.0343,0.0342,0.0341,0.0352,0.0333,0.0303,0.03,0.034,0.0341,0.0341,0,0.0366,0.0357,0.0347,0.0346,0.0345,0.034,0.034,0.0338,0.0335,0.0331,0.0329,0.0323,0.032,0.0316,0.0319,0.0326,0.0305,0.0316,0.0306,0.0306,0.03,0.03,0.0269,0.0299,0.0299,0.0299,0.0299,0,0.0341,0.0331,0.0337,0.0331,0.032,0.0325,0.0314,0.0314,0.0313,0.0307,0.0314,0.0307,0.0312,0.0305,0.0308,0.0296,0.0295,0.0295,0.0296,0.0294,0.0294,0.0292,0.0293,0.0298,0.0298,0.0299,0.0299,0,0.0315,0.0319,0.0308,0.0309,0.0309,0.0301,0.0301,0.0295,0.0297,0.0288,0.0287,0.0289,0.0282,0.0285,0.0278,0.0279,0.0265,0.0267,0.0265,0.0266,0.0255,0.0256,0.022,0.0216,0.0249,0.0249,0.0249,0,0.0299,0.0292,0.0292,0.0289,0.0288,0.0282,0.0279,0.0284,0.028,0.0277,0.0271,0.0265,0.026,0.0249,0.025,0.0244,0.0246,0.0234,0.0245,0.0244,0.0245,0.0246,0.0245,0.0232,0.0231,0.0231,0.0231,0,0.027,0.0273,0.0268,0.0264,0.026,0.0257,0.0254,0.0251,0.0256,0.0251,0.0245,0.0241,0.0234,0.0227,0.0222,0.0221,0.0226,0.0227,0.0224,0.0223,0.0222,0.0222,0.0259,0.0228,0.0228,0.0228,0.0229,0.0229,0.0248,0.0242,0.0241,0.0236,0.0235,0.0232,0.0227,0.0228,0.0223,0.0218,0.0221,0.0213,0.0211,0.0205,0.0203,0.0197,0.0201,0.0197,0.0196,0.0195,0.0194,0.0223,0.0196,0.0196,0.0196,0.0196,0.0196,0,0.0219,0.0219,0.0215,0.0211,0.0207,0.0213,0.0211,0.0206,0.02,0.0198,0.0193,0.0185,0.0179,0.018,0.0174,0.0169,0.0171,0.0167,0.0167,0.0167,0.019,0.0193,0.0165,0.0165,0.0165,0.0165,0.0165,0.0165,0.0204,0.0193,0.0196,0.0185,0.0185,0.0178,0.0176,0.0173,0.0172,0.0163,0.0159,0.0159,0.0158,0.0153,0.0147,0.0147,0.0145,0.014,0.0141,0.0162,0.0165,0.0168,0.0171,0.0139,0.0139,0.0118,0.0118,0.0118]}]]